Weather History for Greenville, MS

Change the Weather History Date:

Monday, March 11, 2013

  Actual Average Record
Temperature  
Mean Temperature 46 °F 54 °F  
Max Temperature 54 °F 64 °F 85 °F (2006)
Min Temperature 38 °F 43 °F 22 °F (1998)
Degree Days  
Heating Degree Days 19 12  
Month to date heating degree days 204 145  
Since 1 July heating degree days 2207 2454  
Cooling Degree Days 0 0  
Month to date cooling degree days 0 0  
Year to date cooling degree days 10 5  
Moisture  
Dew Point 36 °F    
Average Humidity 66    
Maximum Humidity 82    
Minimum Humidity 50    
Precipitation  
Precipitation 0.00 in 0.14 in 2.48 in (1973)
Month to date precipitation 0.99 1.46  
Year to date precipitation 13.45 11.45  
Sea Level Pressure  
Sea Level Pressure 29.99 in    
Wind  
Wind Speed 8 mph (WNW)    
Max Wind Speed 17 mph    
Max Gust Speed 24 mph    
Visibility 10 miles    
Events      
T = Trace of Precipitation, MM = Missing Value Source: NWS Daily Summary

Daily Weather History Graph

Daily Weather History Graph

Search for Another Location

Airport:

Trip Planner

Search our weather history database for the weather conditions in past years. The results will help you decide how hot, cold, wet, or windy it might be!

Date:

Astronomy

Mar. 11, 2013 Rise Set
Actual Time 7:19 AM CDT 7:08 PM CDT
Civil Twilight 6:54 AM CDT 7:33 PM CDT
Nautical Twilight 6:25 AM CDT 8:02 PM CDT
Astronomical Twilight 5:56 AM CDT 8:31 PM CDT
Moon 6:54 AM CDT (3/11) 7:18 PM CDT (3/11)
Length of Visible Light 12h 39m
Length of Day
11h 49m
Waning Crescent, 0% of the Moon is Illuminated
Mar 11
Waning Crescent
Mar 11
New
Mar 19
First Quarter
Mar 27
Full
Apr 2
Last Quarter

Hourly Weather History & Observations

Time (CDT) Temp. Windchill Dew Point Humidity Pressure Visibility Wind Dir Wind Speed Gust Speed Precip Events Conditions
12:53 AM 50.0 °F - 41.0 °F 71% 29.94 in 10.0 mi WNW 15.0 mph - N/A   Overcast
1:53 AM 46.9 °F - 39.0 °F 74% 29.92 in 10.0 mi WNW 10.4 mph - N/A   Overcast
2:53 AM 46.9 °F - 39.0 °F 74% 29.97 in 10.0 mi West 15.0 mph 18.4 mph N/A   Overcast
3:53 AM 46.0 °F 40.6 °F 37.9 °F 73% 29.95 in 10.0 mi West 11.5 mph - N/A   Overcast
4:53 AM 44.1 °F 38.6 °F 35.1 °F 71% 29.96 in 10.0 mi West 10.4 mph - N/A   Clear
5:53 AM 44.1 °F 39.0 °F 35.1 °F 71% 29.95 in 10.0 mi WNW 9.2 mph - N/A   Clear
6:53 AM 43.0 °F 36.8 °F 35.1 °F 74% 29.96 in 10.0 mi WNW 11.5 mph - N/A   Mostly Cloudy
7:53 AM 43.0 °F 37.7 °F 35.1 °F 74% 29.98 in 10.0 mi West 9.2 mph - N/A   Clear
8:33 AM 42.8 °F 37.5 °F 35.6 °F 76% 29.96 in 10.0 mi West 9.2 mph - N/A   Mostly Cloudy
8:53 AM 42.1 °F 37.7 °F 35.1 °F 76% 30.01 in 10.0 mi NW 6.9 mph - N/A   Overcast
9:53 AM 44.1 °F 38.1 °F 35.1 °F 71% 30.01 in 10.0 mi NW 11.5 mph - N/A   Scattered Clouds
10:45 AM 44.6 °F 38.8 °F 33.8 °F 66% 30.00 in 10.0 mi WNW 11.5 mph - N/A   Mostly Cloudy
10:53 AM 46.0 °F 40.2 °F 33.1 °F 61% 30.01 in 10.0 mi NW 12.7 mph - N/A   Scattered Clouds
11:53 AM 46.9 °F - 34.0 °F 61% 30.03 in 10.0 mi WNW 12.7 mph - N/A   Scattered Clouds
12:53 PM 48.9 °F - 34.0 °F 56% 30.01 in 10.0 mi NW 15.0 mph 19.6 mph N/A   Clear
1:53 PM 48.9 °F - 34.0 °F 56% 29.99 in 10.0 mi NW 11.5 mph - N/A   Scattered Clouds
2:53 PM 52.0 °F - 36.0 °F 54% 29.98 in 10.0 mi WNW 11.5 mph 16.1 mph N/A   Mostly Cloudy
3:53 PM 52.0 °F - 34.0 °F 50% 29.97 in 10.0 mi West 8.1 mph - N/A   Partly Cloudy
4:53 PM 52.0 °F - 34.0 °F 50% 29.97 in 10.0 mi West 6.9 mph - N/A   Clear
5:53 PM 53.1 °F - 35.1 °F 50% 29.97 in 10.0 mi North 5.8 mph - N/A   Clear
6:53 PM 50.0 °F - 36.0 °F 59% 29.98 in 10.0 mi NNW 5.8 mph - N/A   Clear
7:53 PM 48.9 °F - 37.9 °F 66% 30.00 in 10.0 mi Calm Calm - N/A   Clear
8:53 PM 48.0 °F - 39.0 °F 71% 30.04 in 10.0 mi Calm Calm - N/A   Clear
9:53 PM 44.1 °F 41.5 °F 37.9 °F 79% 30.05 in 10.0 mi NE 4.6 mph - N/A   Clear
10:53 PM 44.1 °F 42.5 °F 37.0 °F 76% 30.07 in 10.0 mi ENE 3.5 mph - N/A   Clear
11:53 PM 42.1 °F - 37.0 °F 82% 30.08 in 10.0 mi Calm Calm - N/A   Clear